Terminal Aerodrome Forecast
Issued by NWS

Home | Current Version | Previous Version | Text Only | Print | Product List | Glossary On
Versions: 1 2 3 4 5 6 7 8 9 10 11 12 13 14 15 16 17 18 19 20 21 22 23 24
070
FTUS43 KDLH 262342
TAFHYR
TAF
KHYR 262342Z 2700/2724 18014KT P6SM VCTS SCT045CB BKN060
      TEMPO 2700/2701 5SM -TSRA BR BKN035CB
     FM270100 19008KT P6SM VCSH BKN040
     FM270300 19003KT P6SM SCT080
     FM270900 00000KT 3SM BR SCT100
     FM271300 23005KT P6SM SCT120=

USA.gov is the U.S. government's official web portal to all federal, state and local government web resources and services.